Skip Page Navigation
NASA JPL Caltech
NASA Logo - Jet Propulsion Laboratory + View the NASA Portal
+ Near-Earth Object (NEO) Program
Search JPL
JPL Home Earth Solar System Stars & Galaxies Technology
JPL Solar System Dynamics
BODIES ORBITS EPHEMERIDES TOOLS PHYSICAL DATA DISCOVERY FAQ SITE MAP
JPL Small-Body Database Browser
Search: [ help ]  
5867 (1988 RE)
Classification: Mars-crossing Asteroid          SPK-ID: 2005867
Ephemeris | Orbit Diagram | Orbital Elements | Physical Parameters | Discovery Circumstances ]

[ show orbit diagram ]
Orbital Elements at Epoch 2457000.5 (2014-Dec-09.0) TDB
Reference: JPL 4 (heliocentric ecliptic J2000)
 Element Value Uncertainty (1-sigma)   Units 
e .2522538040290409 7.7739e-08  
a 1.821146820015433 8.2949e-09 AU
q 1.361755606971149 1.411e-07 AU
i 35.06942735211863 1.1772e-05 deg
node 202.1632001100808 1.4349e-05 deg
peri 105.5901080841332 2.743e-05 deg
M 278.6227450844298 1.7105e-05 deg
tp 2457203.416050913489
(2015-Jun-29.91605091)
4.2813e-05 JED
period 897.668253919919
2.46
6.133e-06
1.679e-08
d
yr
n .4010390235234002 2.7399e-09 deg/d
Q 2.280538033059717 1.0387e-08 AU
  Orbit Determination Parameters
   # obs. used (total)      530  
   data-arc span      12985 days (35.55 yr)  
   first obs. used      1980-01-22  
   last obs. used      2015-08-11  
   planetary ephem.      DE431  
   SB-pert. ephem.      SB431-BIG16  
   condition code      0  
   fit RMS      .57142  
   data source      ORB  
   producer      Otto Matic  
   solution date      2015-Sep-02 14:17:14  

Additional Information
 Earth MOID = .541532 AU 
 T_jup = 3.794 
[ show covariance matrix ]

Ephemeris | Orbit Diagram | Orbital Elements | Physical Parameters | Discovery Circumstances ]

Physical Parameter Table
Parameter Symbol Value Units Sigma Reference Notes
absolute magnitude H 15.1 mag n/a MPO234875  

5867 (1988 RE)          Discovered 1988-Sep-11 by Phinney, J. at Palomar
Reference: DISCOVERY.DBLast Updated: 2003-08-29
Ephemeris | Orbit Diagram | Orbital Elements | Physical Parameters | Discovery Circumstances ]
ABOUT SSD CREDITS/AWARDS PRIVACY/COPYRIGHT GLOSSARY LINKS
FirstGov 2015-Sep-03 21:28 UT
(server date/time)  
NASA Home Page
Site Manager:   Ryan S. Park
Webmaster  Alan B. Chamberlin